GEFSNGP_500_meanwind_000.txt.gz
Wind_Speed
21 23 25 21 19 20 18 18 18 15 12 12 10 7 6 5 8 9 11 16 18 14 10 5 1 3 6 7 10 13 14 16 14 12 12 14 17 20 21 19 17 17 20 18
24 24 25 22 20 19 18 19 20 18 19 17 16 11 6 5 4 8 9 13 14 7 2 3 6 5 5 7 9 13 14 14 15 16 17 19 21 20 17 15 13 15 15 14
28 27 27 22 19 20 20 21 20 19 15 13 15 15 17 11 9 7 6 7 8 9 6 4 4 3 4 5 7 9 10 12 13 15 19 21 17 13 13 14 14 15 16 14
23 24 23 24 21 19 20 21 23 22 22 21 17 14 14 18 15 10 8 7 5 3 3 3 3 3 4 8 10 11 12 13 16 19 20 17 15 15 15 15 16 15 15 15
18 20 21 22 19 15 11 14 18 18 19 21 24 22 18 19 20 18 15 11 9 7 8 7 8 8 10 13 16 17 18 19 19 20 19 17 16 17 17 15 14 13 14 15
19 19 19 20 19 15 13 13 15 16 18 19 25 22 20 20 19 19 18 14 12 11 11 11 12 13 14 14 14 15 16 16 17 19 20 19 19 19 18 15 13 13 13 14
18 17 17 17 17 17 16 14 14 15 15 16 18 18 17 18 17 17 15 13 13 14 14 15 16 17 17 18 18 18 18 18 19 21 21 21 21 20 19 17 15 14 13 14
16 16 16 16 14 14 14 12 9 9 10 11 12 13 15 16 16 16 15 14 16 18 18 18 18 18 18 17 17 17 18 19 20 21 21 21 20 19 16 14 14 15 16 17
19 19 17 16 11 10 11 10 9 8 8 8 9 11 12 14 15 15 14 14 15 15 15 15 16 17 17 17 18 18 19 19 20 21 21 20 19 17 15 13 13 14 14 15
23 25 20 14 10 8 7 6 7 7 7 6 7 8 10 13 14 15 16 16 15 14 14 14 15 17 18 20 21 20 20 20 20 21 21 19 16 15 14 13 13 13 13 14
25 29 29 19 10 6 5 4 5 5 5 5 5 6 9 11 12 13 14 16 17 16 15 15 16 16 17 17 18 19 19 19 18 18 18 16 15 15 15 15 13 11 11 12
28 29 31 31 20 9 3 2 1 2 3 4 4 4 6 8 10 11 12 16 20 19 16 16 16 16 15 15 15 16 16 16 17 18 19 18 16 15 14 16 15 14 14 14
29 30 30 31 30 20 7 4 4 4 6 7 8 6 6 9 11 12 13 15 18 18 16 17 16 16 15 14 14 14 16 17 18 20 21 20 17 16 16 16 16 16 17 17
27 30 29 29 29 29 20 9 5 6 8 9 12 11 8 8 9 10 11 12 14 15 15 16 15 15 14 14 15 15 16 17 17 19 21 22 21 19 18 17 19 20 20 20
23 26 29 30 27 26 25 18 10 11 13 12 11 13 10 9 8 8 9 10 11 12 13 14 15 14 14 15 15 15 15 15 16 17 19 21 21 21 20 21 21 21 23 25
19 22 25 28 28 25 25 27 22 13 11 10 11 12 10 7 8 8 8 8 9 10 11 12 13 13 13 14 14 14 15 16 16 17 17 17 18 19 20 21 23 24 26 29
15 19 22 24 26 27 25 25 29 25 12 8 9 9 7 6 8 9 7 6 6 7 9 10 11 12 13 13 14 14 14 15 16 17 17 17 17 18 19 21 23 25 27 28
17 18 20 20 22 24 24 22 24 29 25 14 10 8 8 8 9 9 8 6 6 6 6 8 9 9 11 13 13 13 14 15 15 16 16 17 17 17 19 21 23 25 27 28
21 20 19 17 17 19 21 21 21 23 26 24 15 11 9 7 6 8 9 8 7 7 6 6 7 8 9 11 12 12 12 13 15 15 15 16 17 17 17 18 20 23 25 26
22 21 18 16 15 16 18 19 20 20 20 21 22 17 11 7 7 9 11 11 10 9 8 6 5 6 7 9 10 11 11 12 13 14 15 16 17 17 17 16 16 19 21 22
21 21 19 16 15 15 16 18 20 21 21 19 18 18 15 11 10 13 16 15 14 12 9 7 5 4 6 8 9 9 10 10 10 12 14 16 17 17 17 16 15 16 17 18
22 22 22 20 17 16 16 17 19 21 22 22 21 17 15 14 17 19 22 18 16 13 11 8 6 3 4 7 8 8 8 8 8 10 13 15 15 15 15 16 15 15 15 15
24 23 23 24 23 20 19 19 19 21 23 24 25 24 24 25 28 27 19 9 14 14 12 9 7 4 3 4 7 8 7 7 7 8 11 13 15 14 13 12 12 13 14 15
27 26 24 25 26 25 24 22 21 21 23 23 25 26 27 26 28 31 20 5 15 16 14 11 9 7 6 5 6 8 8 8 8 9 10 11 14 14 13 11 10 10 12 13
30 29 27 26 27 28 28 26 24 22 23 22 23 24 24 23 21 22 15 6 13 15 14 13 11 10 10 9 7 8 9 9 8 9 10 10 11 12 12 11 10 10 11 12
36 32 31 30 29 29 29 29 27 25 24 22 21 21 21 21 17 13 10 2 9 12 14 15 15 13 13 13 10 10 11 10 10 9 10 11 10 10 11 10 10 9 10 11
42 36 33 32 32 31 30 30 31 29 27 23 21 21 20 19 16 11 8 6 8 13 14 14 15 16 16 16 15 14 14 13 11 11 10 10 10 10 10 9 8 9 9 10

GEFSNGP_500_meanwind_006.txt.gz
Wind_Speed
27 26 26 28 28 26 25 22 21 21 20 18 16 16 15 16 14 13 11 10 9 12 14 14 15 16 17 16 15 13 11 10 9 7 5 1 3 7 11 14 16 18 20 20
27 25 25 27 28 28 28 25 22 21 20 17 15 14 15 15 15 12 10 8 7 9 12 13 14 15 15 13 12 10 9 8 6 5 3 4 7 9 11 14 16 19 21 20
26 25 24 24 24 24 25 24 21 20 22 21 19 18 17 16 15 12 9 8 9 10 11 11 11 11 10 10 9 8 7 5 5 5 6 8 9 11 13 15 17 20 21 21
24 24 23 22 22 22 23 25 22 20 21 22 22 21 19 18 17 15 14 14 14 15 14 13 12 11 10 9 8 8 7 7 8 9 10 11 13 14 16 18 20 21 22 22
21 21 20 20 20 20 21 22 22 21 21 21 22 22 20 19 17 16 16 15 14 13 12 12 11 11 11 11 10 10 10 10 10 11 12 13 14 15 17 18 19 20 21 20
22 18 17 17 16 17 17 18 19 19 20 21 22 21 18 18 17 15 14 13 12 12 12 12 13 13 13 13 13 12 11 11 11 11 12 14 14 15 16 16 17 18 19 19
25 18 14 14 13 13 14 15 15 17 18 20 19 18 16 16 16 15 14 12 12 12 13 14 14 14 13 13 12 12 11 12 13 14 15 15 15 15 16 16 16 16 16 18
30 23 16 13 11 12 11 11 12 13 15 16 16 16 16 16 16 15 15 14 14 15 15 15 15 14 14 13 12 12 12 14 15 16 16 16 17 17 17 16 15 14 14 14
32 29 23 17 12 11 10 10 11 12 12 12 13 13 14 14 14 15 16 16 15 16 15 15 15 14 14 13 12 13 14 15 17 18 18 18 19 19 19 18 17 16 15 14
30 31 28 22 15 11 10 10 11 11 11 10 10 11 11 11 11 14 16 16 15 15 16 16 16 15 14 13 13 14 15 17 19 20 20 20 20 20 20 20 20 19 18 16
26 28 29 27 20 14 10 9 10 11 11 10 8 8 9 8 8 10 13 14 14 14 15 16 16 15 14 14 13 14 15 17 19 19 20 21 21 22 22 22 21 21 19 18
23 25 27 27 25 20 13 9 7 7 9 10 9 6 6 7 7 8 10 11 12 13 13 14 14 15 14 14 14 14 14 16 17 19 20 21 22 23 24 24 24 24 21 18
17 21 23 24 25 24 20 13 8 5 5 7 7 5 4 4 6 6 7 8 10 11 12 13 13 14 15 15 14 14 15 15 16 17 19 20 22 23 25 27 29 28 24 19
11 15 19 21 22 23 23 19 14 8 5 4 4 3 2 2 3 3 3 4 6 8 9 11 12 14 15 15 15 15 15 16 16 17 18 19 21 23 25 28 30 30 28 26
9 11 14 17 18 18 19 20 18 15 11 7 4 3 3 3 3 3 3 3 3 4 6 9 10 12 14 15 15 15 14 15 16 16 17 18 20 22 24 26 27 29 29 29
12 11 12 13 15 15 14 15 17 17 16 14 9 5 4 4 4 5 5 5 4 3 3 6 8 11 13 14 15 14 14 15 16 16 16 16 18 19 21 23 25 26 27 27
16 14 12 12 12 13 12 11 12 14 15 15 12 9 6 6 7 7 8 8 6 5 3 3 5 8 10 12 13 13 14 15 16 16 15 15 15 16 18 20 22 23 23 24
17 16 14 13 12 12 11 10 10 12 13 14 14 12 10 8 8 9 11 10 9 8 6 3 3 5 7 9 10 11 12 14 16 16 16 15 14 14 15 17 19 20 21 21
17 16 15 14 13 12 11 11 10 10 12 14 14 14 13 12 12 13 14 13 11 10 8 6 3 3 4 6 7 8 10 12 15 16 16 16 15 14 14 14 16 17 18 19
19 17 16 15 14 14 13 13 12 11 11 13 15 16 16 17 17 18 19 16 12 10 9 7 5 3 2 3 5 6 7 9 12 14 15 15 15 14 14 13 14 14 15 16
21 18 17 17 17 16 15 15 15 14 13 13 15 17 18 20 21 22 21 14 6 8 9 9 8 5 3 1 3 3 4 6 9 12 14 16 15 14 13 13 13 13 13 13
23 21 20 20 20 19 19 18 18 18 17 16 16 17 18 19 21 22 19 10 2 7 10 10 9 7 5 2 1 2 3 4 6 9 11 14 15 14 13 12 12 12 12 12
26 24 23 22 22 23 22 20 20 20 20 19 18 17 17 16 17 17 14 7 3 6 9 10 10 8 6 4 3 3 4 4 5 7 9 11 12 13 13 12 11 11 11 11
31 28 27 25 25 25 25 23 22 22 21 21 20 19 17 15 14 13 11 5 2 5 7 8 9 9 8 6 5 5 4 5 5 6 7 8 9 11 11 11 11 10 11 11
36 34 32 30 29 28 26 25 24 23 22 21 21 20 19 17 15 12 10 7 5 6 7 8 9 9 9 9 8 8 7 6 6 6 6 7 8 9 9 9 9 10 10 9
41 39 37 35 33 31 29 28 27 26 24 22 21 21 21 19 17 15 11 9 7 8 9 10 11 12 12 12 12 12 11 10 9 9 8 7 8 8 9 9 9 9 9 9
46 44 42 40 38 36 34 32 30 28 26 24 23 23 23 23 21 18 15 13 11 10 11 12 14 15 16 16 15 15 15 15 13 12 12 11 9 9 9 10 9 9 9 9

GEFSNGP_500_meanwind_012.txt.gz
Wind_Speed
20 21 21 22 24 26 25 24 22 22 22 20 19 18 18 19 20 20 20 20 19 19 18 18 17 17 17 16 15 14 13 11 9 8 6 6 7 8 10 11 12 13 15 16
21 21 21 24 25 26 27 26 25 24 24 23 22 21 20 20 21 21 20 19 17 16 16 15 15 14 13 12 12 11 10 9 9 8 8 9 10 11 13 14 15 16 16 17
21 19 20 24 24 25 25 25 25 25 24 24 23 23 23 23 22 22 21 20 19 18 17 16 15 13 12 11 10 9 8 7 7 8 8 9 11 12 14 15 17 18 19 20
21 21 22 21 21 22 23 23 23 23 22 22 21 21 22 22 21 21 21 20 20 18 17 16 15 13 12 12 11 10 10 9 9 9 10 10 11 12 13 14 16 17 18 20
23 20 18 17 17 18 19 20 21 20 19 18 18 20 21 21 20 20 19 19 19 17 16 15 14 14 13 13 12 12 12 12 12 12 12 12 13 13 13 14 15 16 17 18
26 22 18 17 16 16 16 17 18 18 17 17 18 20 20 20 19 18 18 18 17 16 15 15 14 14 14 14 15 15 15 15 15 15 15 15 15 15 15 16 16 17 17 18
27 24 20 17 16 15 14 16 16 16 16 16 17 17 18 19 19 18 18 18 17 16 16 15 15 15 15 16 16 16 16 16 17 17 18 19 19 20 20 20 19 19 18 18
26 25 21 19 17 16 16 15 15 15 14 15 15 16 17 18 18 18 18 18 17 16 16 15 15 15 16 16 16 16 17 17 19 20 21 23 24 24 25 24 22 20 19 18
24 24 24 21 18 17 16 16 16 15 14 14 14 15 15 16 17 18 18 17 16 16 15 15 15 15 15 15 15 16 17 18 20 22 24 25 26 27 28 26 23 19 17 15
19 21 22 21 19 17 16 16 16 16 15 13 13 13 14 15 15 16 16 16 15 15 14 15 14 14 14 14 15 16 17 18 20 22 24 26 27 28 29 27 25 21 17 15
14 16 18 19 19 18 17 16 15 15 15 14 13 13 14 14 15 15 15 15 14 14 14 14 14 15 15 14 15 16 17 18 19 21 24 26 27 28 29 28 27 25 22 19
11 12 13 15 16 17 17 16 15 15 15 14 14 14 14 14 14 14 13 13 12 12 13 13 14 15 15 15 15 15 16 17 18 20 22 25 26 27 28 28 28 28 27 25
10 10 11 11 12 14 15 16 16 15 15 15 15 15 15 15 14 14 12 11 11 11 11 11 12 14 14 15 15 15 16 17 18 19 21 24 26 26 27 27 27 27 27 27
11 11 10 10 11 11 11 12 14 14 15 15 15 16 16 16 15 14 13 11 10 9 9 10 11 12 14 14 15 16 16 17 17 18 19 21 24 25 25 25 26 26 26 27
14 13 13 12 11 11 11 11 11 12 13 14 15 16 17 17 16 14 13 11 9 8 8 8 9 10 12 13 13 15 16 17 17 18 19 19 21 22 23 24 24 24 24 25
15 15 14 14 13 13 12 12 11 12 12 13 15 17 18 19 18 15 13 11 9 7 7 6 7 8 9 11 12 14 16 17 18 19 19 19 19 20 21 22 22 22 22 22
16 15 15 15 15 15 15 14 13 13 13 13 14 17 19 21 21 18 14 11 9 7 6 5 5 5 6 8 10 12 14 17 18 19 18 18 18 18 19 19 20 19 19 19
17 17 16 16 17 16 16 16 15 15 14 14 15 16 18 21 22 21 18 12 7 5 5 4 3 3 4 5 7 9 11 14 17 18 18 18 17 17 17 17 17 18 18 18
20 20 19 18 18 18 18 18 18 17 16 16 16 16 18 20 22 22 20 14 6 3 4 4 4 3 2 3 5 7 9 11 15 17 18 17 16 16 16 16 15 15 16 17
25 23 23 21 20 19 19 19 19 19 18 18 18 18 18 19 20 21 21 16 9 4 4 5 5 4 3 2 3 5 7 9 12 15 16 17 16 15 15 15 15 15 14 15
29 28 26 25 23 22 21 20 20 20 20 20 19 19 19 18 18 18 18 16 11 6 5 6 7 6 5 3 3 4 6 7 9 11 13 14 15 15 15 14 14 14 14 14
34 32 30 29 27 25 24 22 22 21 21 21 21 21 20 19 18 16 15 14 11 8 7 7 8 8 8 6 5 5 5 6 7 9 10 12 13 13 14 14 14 14 13 13
38 36 34 33 31 29 28 26 25 23 23 22 22 22 21 20 19 16 14 13 11 9 8 8 9 10 10 9 8 7 6 6 7 7 8 9 10 11 12 12 12 12 12 11
43 41 39 37 35 33 31 30 28 26 25 25 24 23 23 22 21 19 17 15 13 11 10 10 11 11 12 12 11 10 8 8 8 8 8 8 9 9 10 10 11 11 11 10
48 46 44 42 40 38 36 34 32 30 29 28 27 26 25 25 24 22 20 18 16 14 13 13 14 14 14 14 14 13 12 11 11 11 10 10 9 9 9 10 10 10 9 9
52 51 50 48 45 43 40 38 36 34 33 32 30 29 28 28 27 26 25 22 20 18 17 16 16 17 17 17 17 17 17 16 15 14 13 13 12 12 11 11 10 10 9 8
55 55 54 53 51 48 46 43 40 38 38 36 35 33 31 31 31 30 29 27 25 23 22 21 20 19 19 19 20 20 21 21 20 19 18 17 16 16 15 14 13 12 11 10

GEFSNGP_500_meanwind_018.txt.gz
Wind_Speed
20 20 21 22 22 23 23 22 23 23 22 21 20 21 21 21 21 20 20 20 19 19 19 19 19 18 18 18 18 17 16 15 14 12 11 10 9 9 9 9 9 10 11 12
20 20 22 23 23 23 23 22 22 22 21 21 20 20 21 21 21 20 20 20 19 19 19 19 18 18 18 17 17 16 16 15 14 13 13 12 12 11 11 12 12 12 13 13
19 20 21 23 23 23 22 22 21 21 20 20 20 20 19 19 19 19 19 18 18 18 18 19 19 19 19 19 19 18 17 17 16 16 15 15 14 14 14 14 14 14 15 15
21 21 22 22 22 22 22 21 20 19 19 19 20 19 19 20 20 19 19 18 18 18 18 19 19 19 19 19 19 19 19 18 18 18 17 17 17 17 16 16 17 17 18 18
22 22 22 22 21 21 20 19 19 18 18 18 19 19 20 20 21 20 20 19 19 19 19 20 19 19 19 19 19 19 19 19 19 19 19 18 18 18 18 18 18 18 19 19
23 22 22 21 21 21 20 19 19 19 19 18 18 19 20 20 20 20 20 20 19 19 19 19 18 17 18 18 18 19 19 20 21 21 21 21 20 20 18 18 18 18 17 16
20 21 22 22 21 21 20 20 19 19 19 19 19 20 20 20 20 20 19 19 19 19 18 18 17 17 17 17 18 18 20 21 22 23 23 23 22 21 20 19 19 18 16 15
16 18 19 20 20 20 20 21 20 20 20 20 20 20 20 19 19 18 18 17 17 17 17 17 17 17 18 18 18 18 20 21 22 23 24 25 25 24 22 22 21 20 18 16
12 14 15 17 18 19 20 20 21 21 21 21 21 20 19 18 17 16 16 16 16 16 16 17 17 18 18 18 17 18 19 20 22 23 24 25 25 25 25 24 24 23 21 19
8 9 11 13 15 17 18 19 20 21 22 22 22 21 19 18 16 15 14 14 14 15 15 16 17 17 18 18 17 18 18 19 21 22 24 25 25 25 25 26 26 25 24 23
6 7 8 9 11 13 15 17 18 19 20 21 22 22 20 19 17 14 13 12 12 13 13 14 15 16 17 18 18 17 18 18 20 21 22 23 24 25 25 26 26 26 27 27
8 8 8 8 8 9 11 13 15 17 18 20 21 22 22 20 17 15 13 11 10 10 11 12 13 15 16 17 17 17 17 18 18 19 20 22 23 24 25 25 26 26 27 28
9 9 9 9 9 9 10 11 12 14 15 17 19 21 22 21 19 16 13 10 9 8 9 10 11 13 14 16 17 17 17 18 18 18 19 20 21 22 23 24 24 25 26 27
10 10 10 10 10 10 11 11 11 12 13 15 17 19 21 22 21 18 14 10 7 6 7 8 9 10 12 13 15 16 17 17 17 17 18 18 19 20 21 22 22 23 24 25
10 10 10 10 10 10 11 11 11 12 12 13 15 17 19 21 21 19 16 10 7 5 5 6 7 8 9 10 12 14 16 17 17 17 17 17 18 19 20 21 21 22 23 23
10 10 9 9 9 10 11 11 11 12 12 13 13 14 16 19 20 20 17 12 8 5 4 5 5 5 6 7 9 12 14 16 17 17 17 17 17 17 18 19 20 21 21 22
12 11 11 10 10 10 11 11 12 12 12 12 13 13 14 16 18 19 17 13 8 6 4 4 4 4 5 6 7 9 12 14 16 16 16 16 16 16 17 17 18 19 20 20
16 14 13 12 12 11 11 12 12 13 13 12 13 13 13 14 15 16 16 14 10 7 5 5 4 3 4 5 6 7 9 11 13 14 15 15 15 15 16 16 17 17 18 18
20 19 17 16 14 14 13 13 13 13 13 13 13 13 13 13 13 14 14 13 11 8 7 6 6 5 4 5 6 7 7 9 10 12 13 14 14 15 15 15 16 16 16 16
25 24 22 20 18 17 16 15 15 14 14 14 14 14 14 13 13 13 13 12 11 9 8 7 7 6 6 6 6 6 7 8 9 10 10 11 12 13 14 14 14 14 14 14
30 28 26 25 23 21 20 19 18 17 17 16 16 16 15 15 14 14 13 13 12 11 9 9 8 8 8 8 8 8 8 8 8 9 9 10 10 11 12 12 12 13 12 12
35 33 31 30 28 27 25 23 22 21 20 19 19 18 18 17 17 16 15 14 14 13 12 11 10 10 10 10 10 10 9 9 9 9 9 9 9 9 10 10 10 11 10 10
40 39 37 36 35 33 31 29 27 25 24 23 22 21 21 21 20 20 19 17 16 16 15 14 13 12 12 12 12 12 11 11 10 10 9 9 9 9 9 9 9 9 9 8
44 44 44 43 42 40 37 35 34 31 29 28 26 25 24 24 24 24 23 22 20 19 18 17 16 16 15 14 14 14 14 13 12 11 11 11 11 10 10 10 10 9 9 8
49 49 49 49 47 46 44 42 39 37 35 34 33 31 29 28 28 27 27 26 25 23 22 21 20 19 19 18 17 17 17 16 16 15 14 13 13 13 13 13 12 11 10 9
54 54 54 54 52 50 48 47 44 42 40 38 37 36 35 33 32 31 31 31 30 29 27 25 24 23 22 22 21 20 20 19 20 20 19 19 18 17 17 16 16 15 14 13
59 58 57 57 56 55 53 50 48 46 44 42 40 40 39 38 36 35 35 34 34 34 33 31 29 27 26 25 25 25 24 23 22 22 22 22 22 21 21 20 19 18 18 17

GEFSNGP_500_meanwind_024.txt.gz
Wind_Speed
17 17 16 16 16 16 17 17 17 18 18 19 19 20 20 20 20 20 21 22 22 22 22 23 23 23 22 21 20 19 18 17 16 14 12 11 9 8 7 7 8 8 9 10
16 16 16 16 16 17 17 18 18 18 18 19 19 20 20 19 19 19 20 21 22 22 22 22 22 22 21 21 20 20 19 18 17 16 14 12 11 10 10 10 11 11 12 13
15 15 16 16 16 17 17 17 18 18 19 19 19 19 19 19 19 19 19 20 21 21 22 21 22 22 21 21 21 20 20 20 19 17 16 15 14 13 12 12 12 12 12 12
15 15 15 16 17 17 17 17 18 18 18 18 18 18 18 18 18 18 18 18 19 19 19 19 20 20 20 20 20 20 21 21 21 20 19 18 17 16 15 14 14 13 13 13
15 15 15 16 17 17 17 17 18 18 18 18 18 17 17 17 17 17 17 17 17 17 18 17 18 18 18 19 20 21 21 22 23 23 22 21 20 18 18 17 17 16 16 15
12 13 15 16 16 17 17 18 18 19 18 17 17 16 16 16 16 16 15 15 15 16 17 17 17 17 17 18 20 20 21 22 23 24 24 23 22 21 21 21 20 20 19 18
9 10 12 14 15 16 16 17 18 19 19 18 17 15 14 14 14 14 14 14 15 15 16 17 17 17 17 18 19 20 20 22 23 24 24 24 23 23 23 23 23 23 22 21
7 8 9 11 13 15 15 16 18 19 19 18 17 15 14 13 13 13 13 13 14 15 16 16 17 17 17 17 18 19 20 22 23 24 24 24 24 24 24 24 25 25 25 24
8 8 8 9 11 12 13 15 16 17 18 18 17 15 14 13 12 12 11 12 12 13 14 15 16 17 17 17 18 19 20 21 22 23 24 24 24 24 24 25 26 27 27 27
10 9 9 9 10 10 12 13 14 15 16 18 17 16 14 13 11 10 9 9 10 11 13 14 15 16 17 17 18 18 19 20 21 22 23 23 23 24 24 25 26 27 28 28
12 11 11 10 10 10 10 11 12 13 14 16 17 16 15 13 11 9 8 7 8 10 11 12 13 14 16 17 18 19 19 20 20 21 22 23 23 24 24 25 26 27 27 28
15 13 13 11 11 10 10 10 11 11 12 14 15 16 15 14 11 9 7 6 6 7 9 10 11 12 14 16 17 19 20 20 20 21 21 22 23 24 25 25 26 26 27 28
15 15 14 13 12 11 10 10 10 10 10 11 12 14 15 14 12 9 7 5 5 6 7 8 9 10 12 14 16 18 19 20 21 21 21 22 23 24 25 25 26 26 26 26
16 15 14 13 12 11 10 9 9 9 9 9 10 11 12 13 13 10 8 6 5 5 5 6 7 8 9 11 14 16 18 19 20 21 21 22 22 23 24 25 25 26 25 25
17 16 15 13 13 12 11 10 9 8 8 8 9 9 10 11 12 11 9 7 5 5 5 5 6 6 7 9 11 13 15 17 19 20 20 21 22 22 23 24 24 25 25 24
18 17 16 15 14 13 12 11 10 9 8 8 8 8 8 9 9 10 9 8 6 6 5 5 5 5 6 7 9 11 13 14 16 18 19 20 21 22 22 23 23 23 23 23
22 21 19 17 16 15 15 14 12 11 10 9 9 8 8 8 8 8 8 8 7 7 6 6 6 5 6 6 7 8 10 12 14 15 17 18 19 20 21 21 22 22 22 22
26 25 22 21 19 18 18 17 16 15 13 12 11 10 9 9 9 9 8 8 8 8 7 7 7 7 7 7 7 8 8 10 11 13 14 15 17 18 19 20 20 20 20 20
30 28 26 25 23 22 21 20 20 18 17 16 15 14 12 11 11 10 10 9 9 9 8 8 8 8 8 8 8 8 9 9 9 10 11 12 13 15 16 17 17 18 18 18
33 31 30 28 27 26 25 24 23 22 21 20 19 18 17 15 14 13 12 12 11 11 10 10 10 10 10 10 10 10 10 10 10 10 10 10 11 11 12 13 14 15 15 15
37 35 34 32 31 30 29 28 27 26 25 24 23 22 21 20 19 18 16 15 14 13 13 13 12 12 12 12 11 11 11 11 11 11 10 10 10 10 10 10 11 11 12 12
41 39 38 37 36 35 34 32 31 30 29 28 27 26 25 24 23 22 21 19 18 17 17 16 15 15 14 14 14 14 13 13 13 12 12 11 10 10 9 9 9 9 9 9
45 44 43 42 41 40 39 37 36 34 33 32 30 29 28 28 27 26 26 24 23 22 21 20 19 18 18 17 17 16 16 16 15 15 14 13 12 12 11 10 10 9 8 8
50 49 49 48 47 46 45 44 42 40 38 37 35 34 33 32 31 31 30 29 28 28 27 25 24 23 22 21 20 20 19 19 19 18 17 16 16 15 14 13 12 12 11 10
54 54 53 53 53 52 51 49 48 46 44 42 41 40 39 37 36 35 34 33 33 33 32 32 30 29 27 26 25 24 23 23 22 22 21 20 20 19 18 18 17 16 15 14
59 58 57 57 57 56 56 54 53 51 50 48 47 45 44 43 42 41 39 38 37 37 37 37 36 35 34 32 30 28 27 27 26 26 25 24 24 23 23 22 22 21 20 19
65 64 63 62 61 61 60 59 58 57 55 53 52 51 50 49 48 47 45 43 42 41 41 41 40 39 39 38 36 34 32 31 30 29 29 28 28 27 26 26 25 24 24 23

GEFSNGP_500_meanwind_030.txt.gz
Wind_Speed
14 15 16 16 17 17 18 18 18 17 17 17 16 15 15 15 15 15 16 17 17 18 19 20 20 20 21 21 21 21 20 19 17 15 12 10 8 6 5 4 5 7 9 12
13 14 15 16 17 18 18 18 18 18 18 17 16 15 15 14 15 15 16 17 17 18 18 19 20 20 21 21 22 22 22 21 19 18 16 14 12 11 10 8 7 7 8 9
13 14 15 16 17 18 19 19 18 18 17 16 16 15 15 14 14 15 16 17 17 18 18 18 19 20 20 20 21 21 21 21 20 19 18 16 15 14 13 12 11 11 10 10
11 13 13 15 16 17 19 19 19 17 16 16 16 15 14 13 13 13 14 16 17 17 17 18 18 19 19 20 21 21 21 21 20 20 19 17 16 15 15 15 14 14 14 14
10 11 12 13 15 16 18 19 19 18 16 15 15 14 13 13 13 13 14 15 16 16 17 17 17 18 19 19 20 21 21 20 20 19 19 18 17 16 16 16 17 17 17 17
8 9 11 12 14 15 16 18 18 17 16 15 14 13 12 12 11 12 13 14 15 15 16 16 17 17 18 19 19 20 20 20 20 19 19 18 18 17 17 17 18 19 19 19
9 9 10 11 12 14 15 16 17 17 16 15 14 12 12 11 10 10 12 13 14 15 15 16 16 16 17 18 19 19 19 19 19 19 19 19 19 19 19 19 20 20 20 21
10 10 10 11 12 13 13 15 16 16 16 15 14 13 11 10 9 9 10 11 12 13 14 15 16 16 17 18 18 19 19 19 19 20 20 20 20 20 20 20 21 21 21 22
12 12 12 11 11 12 13 13 14 14 15 15 14 13 12 10 9 8 8 9 11 12 13 14 15 16 17 18 18 19 19 19 20 21 21 22 22 21 21 21 22 22 22 23
14 13 13 12 12 12 12 12 13 13 14 14 14 14 12 10 9 8 8 8 9 10 11 12 13 14 16 17 18 19 19 19 20 21 22 22 22 22 22 22 23 23 23 23
15 14 14 13 12 12 12 12 12 12 12 12 12 13 12 11 9 8 7 7 8 9 9 10 11 13 14 16 17 18 19 20 20 21 22 22 22 23 23 23 23 24 23 24
17 16 15 14 14 13 12 12 11 11 10 10 11 11 11 11 10 8 8 7 7 7 8 8 9 10 12 13 15 17 18 20 20 21 22 22 22 23 23 23 23 23 23 23
19 18 17 16 15 14 13 12 12 11 10 10 9 9 9 10 9 8 8 7 7 6 6 7 8 8 10 11 13 15 17 18 20 21 22 22 22 23 23 23 23 23 23 23
20 20 19 18 17 16 15 14 13 12 11 10 9 9 8 8 9 8 8 8 7 7 6 6 7 7 8 9 11 12 14 16 18 20 21 21 22 22 23 23 23 23 23 22
23 22 21 20 19 18 17 16 15 14 13 12 11 10 9 9 8 8 8 7 7 7 7 7 7 7 7 8 9 10 12 14 16 18 19 20 21 21 22 22 22 23 23 22
27 25 23 23 22 20 20 19 18 17 16 15 13 12 12 11 10 9 8 8 8 8 8 8 8 8 8 8 8 9 10 11 13 14 16 18 19 20 20 20 21 21 22 22
30 28 27 26 25 23 22 22 21 20 19 18 17 15 14 14 13 12 11 10 9 9 9 9 8 9 9 9 9 9 9 9 10 12 13 14 16 17 18 18 19 19 20 21
34 33 32 30 28 27 26 25 24 23 22 21 20 19 18 17 16 15 14 13 12 11 10 10 9 9 9 9 9 9 9 9 9 10 10 11 12 14 15 16 16 16 17 18
40 38 37 35 33 32 30 28 28 27 26 25 24 23 22 20 19 18 17 16 15 14 13 12 11 11 10 10 9 9 9 9 9 9 9 9 9 10 11 12 13 13 13 14
46 44 42 40 38 36 34 33 32 31 29 29 28 27 26 24 23 21 20 19 18 17 16 15 14 13 12 11 11 10 10 10 10 9 9 8 8 8 8 8 9 10 10 10
51 49 47 45 43 41 39 38 36 35 33 32 31 30 30 28 27 25 24 22 21 20 19 17 16 16 14 13 12 12 11 11 11 11 10 10 9 9 8 7 7 7 7 7
55 54 52 50 49 47 44 43 41 40 38 36 35 34 33 32 31 29 28 27 25 23 22 20 19 18 17 16 15 14 13 13 12 12 12 12 12 11 10 9 9 8 7 6
59 58 56 55 53 51 50 48 46 45 43 41 40 38 37 36 34 33 32 31 29 27 26 24 23 21 20 19 18 17 16 15 15 14 14 14 14 14 13 13 12 11 11 10
62 61 60 59 58 56 54 53 51 50 48 47 45 43 42 40 37 36 36 35 32 31 30 29 27 26 25 23 22 21 20 19 18 17 17 16 16 16 16 16 16 16 15 15
66 65 63 63 62 61 59 57 56 55 54 52 50 48 47 45 43 41 40 38 37 35 35 34 32 30 29 28 27 25 24 23 22 21 21 20 20 19 19 19 19 19 19 19
68 67 67 67 66 65 64 62 61 60 59 58 56 54 53 51 49 47 45 44 42 41 40 39 37 35 34 33 31 30 29 28 27 26 25 24 24 23 23 23 22 22 23 23
67 67 68 69 70 70 69 68 66 65 64 63 62 60 58 57 55 53 51 50 48 46 45 44 42 41 39 38 36 35 34 33 32 31 30 30 29 28 27 27 26 26 27 26

GEFSNGP_500_meanwind_036.txt.gz
Wind_Speed
11 13 15 17 18 19 19 18 18 17 17 16 16 16 15 16 17 18 19 19 18 19 19 20 20 21 22 23 23 23 22 21 21 20 19 17 16 15 14 13 12 11 10 10
10 12 14 15 17 19 19 19 18 17 16 16 15 15 15 16 16 17 18 18 19 18 18 19 20 21 21 22 22 22 22 22 22 20 19 18 18 16 15 14 14 14 13 12
9 11 12 14 16 18 19 19 19 18 16 16 16 15 15 15 16 17 18 18 18 18 18 19 19 20 21 22 22 22 22 22 22 22 20 20 19 17 17 17 16 16 15 15
9 10 12 14 16 17 18 18 19 18 17 16 16 15 14 14 16 17 18 18 18 18 18 18 19 20 21 21 22 22 23 23 23 23 22 21 20 19 19 19 18 18 18 17
9 10 11 12 14 15 16 17 18 18 18 18 17 16 14 14 14 16 17 17 18 18 18 18 19 20 21 21 22 23 24 24 24 24 24 23 22 21 21 21 20 20 20 19
10 11 11 12 13 13 15 15 17 18 18 18 17 16 15 14 14 14 15 16 16 17 17 18 19 19 20 21 22 23 24 25 25 25 24 24 24 23 23 23 23 22 21 21
11 12 12 12 13 13 13 14 16 16 17 18 18 17 16 15 14 14 14 15 16 16 16 17 18 18 19 20 21 23 24 25 25 26 26 25 25 24 24 24 24 24 23 23
13 13 12 13 13 13 13 13 14 15 16 17 17 17 16 15 14 14 14 14 15 15 15 15 16 17 18 20 21 22 24 25 25 26 27 27 26 25 25 25 25 25 25 25
15 15 15 15 15 14 14 14 13 13 14 15 16 16 16 15 14 14 14 13 13 13 14 14 15 16 17 18 20 21 23 24 25 26 27 27 27 26 26 25 25 26 26 26
18 18 17 17 17 16 16 15 14 14 13 13 14 14 15 15 14 14 14 13 13 12 12 13 13 14 15 16 18 19 21 22 24 25 26 27 27 27 26 25 25 26 27 27
20 20 20 19 18 18 18 17 17 16 15 14 13 13 13 13 14 13 13 13 13 12 11 11 12 13 14 15 16 17 19 20 22 23 24 26 27 27 27 26 25 26 27 27
22 23 22 21 20 20 20 19 19 18 17 16 15 14 14 13 13 13 13 13 13 12 12 11 11 12 13 14 15 16 17 18 20 21 23 24 25 26 27 27 26 25 26 27
26 25 25 24 23 22 22 22 21 21 20 19 18 17 16 15 14 13 13 13 12 12 12 12 12 12 12 13 14 14 15 16 17 19 20 22 23 24 26 26 26 25 25 25
30 28 27 27 26 25 25 25 24 23 23 21 20 19 18 17 17 15 14 14 13 13 13 13 13 13 13 13 13 13 14 14 15 16 17 19 20 21 23 24 25 25 24 23
34 32 30 29 29 29 29 28 27 27 26 24 23 22 21 20 19 18 17 16 15 14 14 13 13 13 13 13 13 13 13 13 13 14 15 16 17 18 19 21 22 23 24 23
38 37 35 34 33 32 32 31 31 30 29 27 26 25 24 22 22 21 20 19 17 17 16 15 14 14 13 13 13 12 12 12 12 12 12 13 14 14 15 17 18 20 21 21
42 42 41 39 38 37 35 34 34 33 32 30 30 29 26 25 24 24 23 22 20 19 18 17 16 15 14 14 13 13 12 12 12 11 11 11 11 12 12 13 14 15 17 18
47 47 46 45 44 42 41 39 38 37 36 35 34 32 30 29 27 26 26 24 23 22 21 20 19 17 16 16 15 14 13 12 12 11 11 10 10 10 10 10 10 11 12 13
51 52 52 51 50 48 46 45 43 42 41 39 38 36 34 33 31 30 29 27 26 25 24 23 21 20 19 18 17 16 15 14 13 12 11 11 10 9 9 8 8 8 9 9
55 56 57 57 56 55 53 51 49 48 46 45 43 41 39 37 36 35 34 31 29 28 27 25 24 23 22 21 20 18 17 16 15 14 13 12 11 10 9 9 8 7 7 7
57 58 59 60 61 60 59 58 56 54 52 50 49 47 44 42 41 40 38 34 32 33 31 29 27 26 25 23 22 21 20 19 18 17 16 15 14 13 12 10 10 9 8 8
59 59 61 62 63 64 64 63 62 60 58 56 54 53 51 48 46 45 42 39 38 37 35 32 31 30 28 27 25 24 23 22 21 20 19 18 17 16 15 14 13 12 11 10
61 61 61 62 63 65 66 67 67 66 64 62 60 58 56 54 52 50 48 45 43 42 40 37 35 34 33 31 29 28 26 25 24 23 22 21 20 19 18 17 17 16 15 14
64 65 64 64 64 65 66 68 70 70 68 67 65 63 61 59 58 56 53 51 49 47 44 42 40 39 38 35 33 32 31 29 28 27 26 25 24 23 22 21 20 20 19 18
67 67 67 67 66 65 65 66 68 70 71 70 69 68 66 64 62 61 59 57 55 52 49 47 45 44 43 40 38 37 35 34 33 31 30 29 28 27 26 25 24 24 23 22
69 70 70 69 69 67 66 65 65 66 69 71 72 71 70 68 66 65 63 62 60 57 55 54 52 50 48 46 44 42 41 39 37 36 34 33 32 31 30 29 28 28 27 27
69 70 70 70 70 69 68 66 64 63 64 67 70 72 73 72 70 69 67 66 65 63 61 60 58 56 54 52 50 48 46 44 42 41 40 38 37 36 34 34 33 32 31 31

GEFSNGP_500_meanwind_042.txt.gz
Wind_Speed
6 7 8 9 11 13 13 13 13 12 12 12 12 12 13 15 16 16 17 17 17 17 18 20 21 21 22 23 24 24 23 23 23 22 21 20 19 17 16 16 15 14 12 11
5 6 7 9 10 11 12 13 14 14 13 13 12 12 13 14 16 16 16 17 17 18 18 19 20 21 22 23 24 24 24 24 23 23 23 21 20 18 18 17 17 16 15 14
4 5 6 7 9 10 11 12 13 14 14 13 13 13 13 14 15 16 16 17 17 18 18 19 20 21 22 23 24 25 25 25 25 25 24 23 22 20 19 19 19 18 17 15
2 3 5 6 8 9 10 11 12 13 14 14 14 13 13 13 14 15 16 16 16 17 17 18 19 20 22 23 24 25 25 26 26 26 26 25 23 22 22 22 21 20 19 18
2 3 5 6 7 8 9 10 11 12 13 14 15 14 13 13 13 14 15 15 16 16 16 17 19 20 21 22 24 24 25 27 28 28 27 26 25 24 24 24 23 23 22 21
4 5 6 6 7 8 9 10 11 12 12 14 14 14 14 13 13 14 14 14 14 15 15 16 17 18 20 21 22 24 25 27 28 28 29 28 27 26 25 25 25 25 25 24
7 7 7 7 8 8 9 10 11 11 12 13 14 14 14 13 13 13 13 13 13 13 14 15 16 17 18 20 21 22 23 25 27 28 29 29 28 27 27 26 26 26 27 26
11 11 11 10 10 10 10 11 11 12 12 12 13 14 14 14 14 13 13 13 13 13 13 13 14 15 17 18 20 21 22 23 25 27 28 29 29 28 28 27 27 27 28 27
14 14 13 13 13 13 13 13 12 13 13 13 13 14 14 14 14 14 14 14 13 13 13 13 14 15 16 17 18 20 21 22 23 25 27 28 29 29 28 28 27 27 28 28
17 17 15 15 16 16 16 16 15 15 15 14 14 14 15 15 15 15 15 15 14 14 14 14 14 15 15 16 17 18 19 20 21 23 25 26 27 28 28 28 27 27 28 28
19 19 18 17 18 18 19 19 19 18 18 17 17 16 16 17 17 16 16 16 16 15 15 15 15 16 16 16 17 17 18 18 19 20 21 23 25 26 27 28 27 27 27 27
19 20 20 20 20 20 21 21 21 21 21 20 19 19 18 19 19 19 18 18 17 17 16 16 16 16 16 16 16 17 17 17 18 18 19 20 21 23 24 26 26 25 25 26
22 23 23 23 23 23 23 23 24 24 24 23 23 22 21 21 21 21 21 20 20 19 18 17 17 17 17 17 16 16 16 16 16 17 17 17 18 20 21 22 24 24 24 23
28 27 27 28 28 28 27 27 27 27 27 27 26 26 25 24 24 23 23 23 22 22 21 20 19 18 18 17 17 16 16 16 16 15 16 16 16 16 17 18 20 21 22 21
33 33 33 33 33 33 32 32 31 31 31 31 30 30 29 28 27 26 27 26 26 25 24 23 22 22 20 19 18 17 17 16 16 15 15 14 14 14 14 15 16 17 18 19
38 39 39 40 39 39 39 38 37 36 36 36 35 35 34 33 31 30 30 30 29 28 28 27 26 25 24 22 21 20 19 17 17 16 15 14 14 13 13 12 12 13 14 15
42 43 45 46 46 46 45 45 44 43 42 41 41 40 39 38 36 35 35 35 33 31 31 31 30 29 27 26 25 23 21 20 19 17 16 15 14 14 13 12 10 9 9 10
46 47 48 49 50 51 51 51 50 50 49 48 47 46 45 44 42 40 39 39 38 35 34 35 35 33 31 29 28 27 25 23 22 20 19 17 16 15 14 13 11 10 8 7
47 47 48 49 50 52 53 53 54 54 54 54 53 52 51 50 48 46 45 44 43 40 38 39 38 36 34 33 32 31 29 27 26 24 22 20 19 18 16 15 14 12 10 9
44 45 45 47 48 50 51 53 54 55 56 56 56 56 55 54 53 52 51 49 47 46 45 44 43 41 39 37 36 34 33 31 30 28 26 24 22 21 19 18 17 15 14 12
41 42 43 44 45 47 48 50 51 53 54 55 56 56 57 57 56 56 55 54 52 51 51 50 48 46 43 42 40 38 37 35 33 32 30 28 26 24 23 21 20 19 18 16
42 43 44 46 46 48 49 50 51 52 54 55 56 56 57 57 58 58 58 58 56 56 55 54 52 50 49 47 45 43 41 39 37 36 34 32 30 29 27 25 24 22 21 20
45 47 48 49 50 51 52 53 54 55 56 57 58 58 59 59 60 60 60 60 60 59 59 58 57 56 54 53 51 48 45 43 41 40 38 36 35 33 31 29 27 25 24 23
49 51 52 54 55 56 57 58 58 59 60 61 61 62 62 62 62 63 63 63 63 63 63 62 62 61 59 58 56 53 50 48 45 44 42 41 39 37 35 33 31 29 28 26
53 54 56 57 58 60 61 62 63 63 64 64 64 65 65 65 64 64 64 64 64 64 64 65 65 65 64 63 61 59 56 53 51 49 47 45 43 41 39 37 35 33 32 30
56 57 58 60 61 62 64 65 66 67 67 67 67 67 66 66 65 64 63 63 64 64 64 65 66 67 67 67 65 63 61 59 57 54 52 50 48 46 44 42 40 38 36 34
58 59 61 62 64 65 66 67 68 69 69 69 68 68 67 66 65 64 63 62 61 62 62 63 65 66 68 69 69 68 66 65 63 60 58 55 53 50 48 46 45 43 41 39

GEFSNGP_500_meanwind_048.txt.gz
Wind_Speed
2 1 3 4 6 8 9 10 10 11 12 12 12 13 13 14 15 16 16 16 16 17 18 19 19 21 22 23 24 25 26 27 27 26 26 25 24 23 22 21 21 20 19 19
2 0 2 4 5 7 8 10 11 12 12 13 13 13 14 14 15 16 16 16 16 16 17 18 19 20 21 22 24 25 26 27 28 28 27 26 26 25 24 24 23 23 22 21
2 2 2 3 5 6 8 9 10 11 12 13 13 14 14 14 15 16 16 16 16 16 17 17 18 20 21 22 23 24 25 27 28 28 28 28 27 27 26 25 26 25 25 23
4 3 3 4 5 6 8 9 10 11 12 12 13 13 14 14 15 15 15 16 16 16 16 17 18 19 20 21 22 24 25 26 27 28 29 29 29 29 28 27 27 27 26 25
6 6 5 6 7 8 9 10 10 11 12 12 13 13 14 14 14 15 15 15 16 16 17 17 17 18 19 20 21 23 24 25 26 27 29 29 30 30 30 29 29 29 28 27
9 9 9 9 10 10 11 11 12 13 13 13 13 14 14 14 14 15 15 15 16 16 17 17 18 18 19 20 21 22 23 24 25 26 28 29 30 31 31 31 31 30 30 29
12 13 12 12 12 13 13 14 15 15 15 16 15 15 15 15 16 16 16 17 17 17 18 18 19 19 20 20 21 22 23 24 24 25 27 28 29 30 31 32 32 31 30 30
15 16 15 15 15 16 17 17 18 18 18 18 18 18 18 18 18 18 18 19 19 19 20 20 20 20 20 21 22 22 23 23 24 25 26 27 28 29 30 32 32 32 31 31
18 17 17 17 18 18 19 19 20 20 20 20 21 21 21 21 21 21 21 21 21 21 21 22 22 22 22 22 22 23 23 23 24 24 25 26 27 28 29 30 31 31 31 30
19 19 18 19 19 20 21 22 22 22 22 22 22 23 23 24 24 24 24 23 23 23 23 23 23 23 23 23 23 24 24 24 24 24 24 25 26 26 27 28 29 30 30 29
21 21 20 20 22 22 23 24 24 24 23 23 23 24 24 25 25 26 26 25 25 25 25 25 25 25 25 24 24 24 24 24 24 24 24 24 25 25 26 26 27 28 28 27
22 23 23 23 24 25 25 26 26 26 26 25 25 26 26 27 27 28 28 27 27 27 27 27 27 27 27 26 26 26 26 25 25 25 24 24 24 25 25 24 24 25 25 25
25 26 26 26 27 27 28 29 29 29 30 30 30 29 29 30 30 30 31 30 30 30 30 30 29 30 30 28 28 27 27 26 26 25 25 24 24 24 24 23 23 22 22 23
29 30 30 30 30 31 32 33 33 34 34 34 34 34 34 34 34 34 34 34 33 33 33 33 32 32 33 31 30 29 29 28 27 27 26 25 24 24 23 23 22 21 20 19
33 34 35 35 36 36 37 38 38 39 39 39 39 39 39 39 38 38 38 38 37 37 37 36 35 35 36 34 33 32 31 30 29 28 27 27 25 24 23 22 22 20 19 18
38 39 40 41 42 42 43 44 44 44 44 44 44 44 44 43 42 42 42 41 41 41 41 40 40 40 39 38 36 34 33 33 32 30 29 28 27 26 24 23 22 21 19 17
43 44 45 46 47 48 48 49 49 49 48 48 47 47 46 45 45 45 45 44 44 44 44 43 43 43 43 42 40 38 37 35 34 33 32 31 29 28 26 25 23 22 20 19
47 48 49 49 50 51 51 51 50 50 49 49 48 47 46 45 45 45 45 45 45 46 46 45 45 45 45 45 45 43 41 39 38 36 35 34 32 30 29 27 25 24 22 21
49 49 49 49 49 49 49 49 49 48 47 46 46 45 45 45 44 44 44 44 44 44 45 46 46 47 47 47 47 47 45 44 42 41 39 37 36 34 32 31 29 27 25 23
48 48 48 48 47 46 45 45 44 43 43 43 43 44 45 45 45 45 46 46 46 46 45 46 46 47 49 50 50 50 49 48 47 45 44 42 40 38 36 34 33 31 29 27
45 45 44 43 42 41 40 40 40 41 42 42 43 44 45 46 47 47 48 49 49 50 50 50 49 49 50 51 52 53 53 52 51 50 49 47 45 43 41 39 37 35 33 31
38 38 37 37 37 37 38 39 39 40 41 42 43 45 46 47 48 50 51 52 52 53 54 54 54 54 54 54 54 55 55 56 55 55 54 53 51 49 47 45 42 40 38 35
35 36 36 36 37 37 38 39 40 41 42 44 45 47 48 50 51 52 54 55 56 57 58 58 58 58 57 57 57 57 58 59 59 59 58 57 56 55 53 51 48 45 43 40
35 35 35 36 36 37 39 40 42 43 45 47 48 50 52 53 55 57 58 60 60 61 61 62 62 62 62 61 61 60 60 60 61 62 62 61 61 60 58 56 54 51 48 45
35 36 36 37 38 39 41 43 44 46 48 50 52 54 56 57 59 60 62 63 64 65 66 66 67 67 67 66 65 64 63 62 63 64 64 64 64 64 63 61 59 56 54 51
37 38 38 39 40 41 43 45 46 48 50 52 54 56 58 60 62 63 65 66 68 69 69 70 70 70 69 68 67 66 65 64 65 65 66 66 66 67 66 65 64 62 59 56
39 40 41 42 43 44 45 46 48 50 52 54 56 58 59 61 63 64 66 67 68 69 70 70 70 69 69 67 65 64 63 62 63 64 66 68 68 68 68 67 66 65 63 61

GEFSNGP_500_meanwind_054.txt.gz
Wind_Speed
9 7 5 4 4 4 4 5 5 6 7 7 8 9 9 10 10 11 12 13 13 14 14 15 16 17 18 19 20 21 22 23 23 24 25 25 25 25 26 26 26 25 24 23
8 6 5 3 2 2 2 3 3 4 5 6 7 8 9 10 10 11 12 12 13 14 15 15 16 17 18 19 20 21 22 23 24 24 25 25 26 26 27 27 27 27 26 25
8 6 5 3 2 1 1 2 3 4 5 6 7 8 9 10 11 12 12 13 14 15 16 17 17 18 19 20 21 22 23 23 24 24 25 26 26 26 27 28 28 29 28 26
8 7 6 5 4 4 4 4 4 5 6 8 9 10 11 12 12 13 14 15 16 16 17 18 19 19 20 21 21 22 23 23 24 24 25 26 27 27 27 28 29 29 29 28
9 8 7 7 6 6 6 7 7 8 9 10 11 12 12 13 14 15 16 17 17 18 18 19 20 20 21 21 22 22 23 24 24 25 25 26 26 27 28 28 29 29 30 30
10 9 9 9 9 9 9 9 10 11 12 12 13 14 15 15 16 17 18 18 19 19 20 20 21 21 21 22 22 23 24 24 24 25 25 26 26 27 27 28 28 29 30 30
12 12 11 11 11 12 13 13 14 14 14 15 16 16 17 17 17 18 18 19 20 20 20 21 21 22 22 22 23 23 24 24 25 25 25 25 26 26 27 28 28 28 29 29
15 15 14 14 15 15 16 16 16 16 16 17 17 17 18 18 19 19 19 20 20 21 21 22 22 22 23 23 23 23 24 24 25 25 25 25 26 26 26 27 27 27 28 28
17 17 17 17 17 17 17 18 18 18 18 18 19 19 19 19 19 20 20 21 22 22 23 23 23 24 24 24 24 24 24 24 25 25 25 25 25 26 26 26 26 27 27 27
19 19 19 19 19 19 19 19 19 20 20 20 20 20 20 21 21 21 22 22 23 24 25 25 26 25 25 25 24 25 25 25 25 25 25 25 25 26 26 26 26 26 26 25
21 21 21 21 21 21 21 21 21 21 21 21 22 22 22 22 23 24 24 25 26 27 28 28 29 28 27 26 26 26 26 26 26 26 25 25 25 25 25 25 25 25 25 24
23 23 23 23 23 23 23 23 23 23 23 23 24 24 25 26 26 27 28 29 30 31 31 32 32 32 31 29 28 28 28 28 27 27 27 26 26 26 26 25 25 25 24 24
26 25 25 25 25 25 25 25 25 25 26 26 27 28 29 30 31 32 33 33 34 35 35 35 35 35 33 32 31 30 30 30 30 29 29 28 27 27 26 26 25 25 24 23
28 28 28 27 28 28 28 28 29 29 30 30 31 32 33 34 35 36 37 38 38 38 38 37 37 36 35 35 34 33 32 32 32 31 31 30 30 29 28 27 26 26 25 24
31 31 31 31 31 31 32 32 32 33 34 35 36 37 38 39 39 40 40 40 39 39 38 38 37 37 36 36 35 35 34 34 34 33 33 33 32 32 31 30 29 28 27 25
35 34 34 34 35 35 35 36 36 37 38 39 40 41 41 41 41 41 40 40 39 38 37 37 37 37 36 36 36 35 35 35 35 34 34 35 35 34 34 33 32 31 30 29
37 37 38 39 39 39 39 40 41 42 43 43 44 43 43 42 42 41 40 38 37 36 35 35 35 35 35 35 36 35 36 36 36 36 36 36 36 37 37 36 35 35 34 33
41 41 42 42 43 43 43 44 45 46 46 46 45 44 43 43 42 40 38 37 36 35 35 35 35 35 35 35 36 36 37 37 37 37 37 37 38 38 39 39 39 39 38 37
44 45 45 46 47 47 47 48 48 48 47 46 45 44 43 41 39 38 36 36 36 36 36 36 36 37 37 37 38 38 39 39 39 39 40 40 40 41 41 41 42 42 42 42
48 48 49 49 49 49 50 49 48 48 46 45 44 42 40 38 37 36 36 36 36 36 37 37 38 39 39 40 41 42 42 42 43 43 44 44 44 44 45 45 45 46 46 46
51 51 51 50 50 50 49 48 47 46 45 43 41 39 38 37 37 37 37 37 37 38 39 39 40 41 42 42 43 44 45 46 46 47 48 48 48 49 49 49 50 50 50 51
52 52 52 51 50 49 48 47 45 44 42 41 39 39 38 38 38 38 38 39 40 41 42 42 43 44 45 46 47 48 48 49 50 51 52 52 52 53 53 54 54 55 55 55
50 50 50 50 48 47 45 44 42 41 40 39 39 39 39 39 39 40 40 41 43 44 44 45 46 47 48 49 50 51 52 53 54 55 56 56 57 57 57 58 58 58 59 60
43 44 44 44 43 42 41 40 40 39 39 39 39 39 40 40 41 42 43 44 45 46 47 48 49 50 51 53 54 55 57 58 59 59 60 60 61 61 60 60 60 61 61 62
36 36 37 37 37 37 37 37 38 38 38 39 39 40 41 42 43 44 45 46 47 48 49 50 52 53 54 56 57 59 60 61 62 62 63 63 62 62 61 61 61 61 61 62
33 34 34 35 35 35 36 37 37 38 38 39 41 42 43 44 45 46 47 48 49 50 51 52 53 55 56 58 59 61 62 62 63 63 63 63 62 62 61 60 60 59 58 58
34 35 35 35 36 37 37 38 38 39 40 41 43 44 45 45 46 47 48 49 50 51 52 54 55 57 58 59 60 61 62 62 62 62 61 61 61 61 60 59 58 57 56 55

GEFSNGP_500_meanwind_060.txt.gz
Wind_Speed
15 12 12 11 10 9 8 7 6 4 2 1 1 2 3 5 6 8 9 10 12 13 14 16 17 18 19 19 20 20 21 21 21 21 22 22 23 23 24 24 24 25 25 25
15 13 12 11 10 9 8 7 5 4 2 2 2 3 4 6 7 8 10 11 13 14 15 17 18 19 19 20 20 20 21 21 21 22 22 22 22 23 24 24 24 25 25 26
15 14 13 12 10 9 8 7 6 5 4 4 4 5 6 7 8 10 11 12 14 15 16 17 18 19 20 20 21 21 21 21 22 22 22 22 23 23 24 24 25 25 25 26
16 15 15 12 10 9 9 8 8 7 6 6 7 7 8 9 10 11 13 14 15 16 17 18 19 20 21 21 21 22 22 22 22 22 23 23 23 23 24 24 25 25 25 26
17 16 13 12 12 11 11 10 9 9 9 9 10 10 11 11 12 13 14 15 16 17 18 19 20 21 21 22 22 23 23 23 23 23 23 23 23 24 24 24 25 25 26 26
18 16 15 14 13 13 13 12 11 11 11 12 13 12 12 13 14 14 15 16 17 18 19 20 21 22 23 24 24 25 25 25 25 25 25 25 24 24 24 25 25 25 25 26
18 18 18 15 13 15 15 14 13 14 14 14 15 14 14 15 15 16 16 17 18 19 20 21 22 23 24 25 26 26 26 26 26 26 26 26 26 26 26 25 25 25 25 26
20 21 20 16 16 17 17 16 16 16 16 17 17 16 17 17 17 17 18 19 19 20 21 22 24 25 26 27 27 28 28 28 28 28 28 27 27 27 27 26 26 26 26 26
22 22 21 19 19 20 20 19 19 18 18 19 19 19 19 19 19 19 19 20 21 22 23 24 26 27 28 29 30 30 30 30 30 29 29 29 28 28 27 27 27 26 26 26
24 23 23 22 22 22 22 22 21 21 21 21 21 21 20 20 20 20 21 22 23 25 26 27 29 30 31 32 33 33 32 32 31 31 30 30 29 29 29 29 28 27 27 26
26 26 25 24 24 24 24 23 23 23 23 23 23 23 22 22 22 22 23 24 26 28 29 31 32 33 34 35 35 35 34 33 33 32 32 31 31 31 30 30 30 29 28 28
27 28 28 26 26 26 25 25 25 25 25 25 25 24 24 24 25 25 26 27 29 30 32 34 35 36 37 37 36 36 34 33 33 33 32 32 31 31 31 31 31 31 31 30
31 31 30 28 28 28 28 27 27 27 27 27 27 27 27 27 27 28 29 30 32 33 35 37 38 38 39 38 37 36 35 33 33 32 32 32 32 31 30 30 31 31 32 32
35 33 32 31 31 31 30 30 29 29 29 29 29 30 30 30 31 31 32 33 34 36 37 38 39 39 39 38 37 36 35 33 32 31 31 31 31 31 31 31 30 30 31 32
36 35 36 35 34 33 33 32 32 32 32 32 33 33 33 33 34 34 35 36 37 38 39 40 40 40 39 38 37 35 33 32 31 31 31 31 31 31 32 32 32 32 32 32
39 39 39 38 37 37 36 36 36 36 35 36 36 37 37 37 37 38 38 39 40 41 42 42 42 41 39 37 35 34 33 32 32 32 32 32 32 32 33 33 33 33 34 34
43 42 41 41 41 41 40 40 40 39 39 39 40 40 40 40 40 41 41 42 43 43 43 44 43 40 38 36 35 34 34 34 33 33 33 34 34 35 35 35 35 36 36 37
45 44 44 45 45 44 44 44 43 43 43 43 44 44 44 43 43 44 44 45 45 44 44 43 41 39 37 36 36 35 35 35 35 36 36 36 36 37 37 38 38 39 39 39
48 47 48 48 48 48 48 48 48 47 47 47 47 47 47 47 47 47 47 47 46 45 44 42 40 39 38 38 37 37 37 37 38 38 38 39 39 39 40 40 41 41 42 42
51 51 51 51 51 51 51 51 52 51 51 51 51 50 50 50 50 49 49 48 47 46 44 42 41 40 40 39 38 38 39 39 40 40 41 41 42 43 43 44 44 44 45 45
54 54 55 55 55 55 55 55 55 55 55 55 54 54 53 53 52 51 50 49 47 46 45 43 42 41 41 40 40 40 41 41 42 43 43 44 45 46 46 47 47 48 49 49
55 55 56 57 57 58 58 58 58 58 58 58 57 56 56 55 54 53 51 49 47 46 45 44 43 42 41 41 41 42 43 44 45 45 46 47 48 49 49 50 51 52 53 54
54 55 56 56 57 58 58 59 59 59 59 59 58 57 57 55 54 52 50 48 47 45 44 43 42 41 41 41 42 43 45 46 47 48 49 50 51 52 53 54 55 56 57 58
51 52 53 54 55 56 56 57 57 58 58 58 57 55 54 52 51 49 47 46 44 43 42 41 41 41 42 43 44 45 47 48 49 50 51 52 53 55 56 58 59 60 62 62
47 48 49 50 51 51 52 52 52 52 52 52 51 50 49 48 46 45 43 42 41 41 40 40 41 42 43 44 45 47 48 49 51 52 53 55 56 58 60 61 63 64 65 66
43 44 44 44 45 45 45 45 45 45 45 45 44 44 43 42 41 40 40 40 40 40 41 41 42 43 44 45 47 48 49 51 52 54 56 58 59 61 63 64 66 67 68 69
41 41 41 41 41 41 41 40 40 40 40 40 40 39 39 39 39 39 39 40 40 41 42 42 43 44 45 46 48 49 51 52 54 56 58 60 62 63 65 66 67 68 69 69

GEFSNGP_500_meanwind_066.txt.gz
Wind_Speed
16 16 16 15 14 14 13 12 11 9 8 8 8 7 6 5 4 3 3 4 5 7 9 11 12 14 15 16 17 18 18 18 19 19 19 19 19 19 19 19 19 19 19 19
16 16 16 15 14 14 14 13 11 10 10 10 10 9 7 6 5 4 5 6 7 9 10 12 13 14 16 17 18 18 19 19 19 19 19 19 19 19 19 19 19 19 19 19
17 18 17 14 14 15 15 13 12 11 10 11 10 9 8 6 6 7 7 8 9 10 11 12 13 15 16 17 18 19 19 20 20 20 20 20 20 19 19 19 19 19 19 19
19 20 18 13 17 17 16 15 13 12 11 10 10 9 8 8 8 9 9 10 11 12 12 13 14 15 16 18 19 19 20 21 21 21 21 21 21 21 20 20 20 20 20 20
21 21 18 16 17 17 17 16 15 14 13 12 11 11 10 10 10 11 11 12 13 13 14 14 15 16 17 18 19 20 21 22 23 23 23 23 22 22 22 21 21 21 21 21
22 23 20 16 19 20 19 17 17 16 15 14 13 13 13 12 12 13 13 14 14 14 15 15 16 17 18 20 21 22 24 25 25 25 25 25 24 24 23 23 22 22 22 21
23 24 20 18 20 21 20 18 19 17 16 15 14 15 15 15 14 14 15 15 15 15 16 16 17 19 20 22 23 25 26 27 28 28 27 27 26 26 25 24 23 23 23 22
24 24 19 20 22 22 21 20 20 19 18 18 17 18 17 17 17 17 17 17 16 17 17 18 19 21 22 24 26 27 28 29 30 29 29 28 28 27 26 25 25 24 23 23
26 24 22 23 22 22 22 22 21 21 21 20 20 20 19 19 19 18 18 18 18 18 19 20 21 23 24 26 28 29 30 31 31 31 30 29 29 28 28 27 26 25 24 24
27 25 25 24 24 23 24 23 23 23 22 22 21 21 21 20 20 19 19 19 19 19 20 21 23 25 26 27 29 30 32 32 32 32 31 30 29 28 28 27 26 25 25 24
28 27 28 27 26 26 25 25 24 24 23 23 22 22 22 21 21 21 21 21 21 21 22 24 25 26 28 29 30 32 33 33 33 32 32 31 30 28 27 26 26 25 25 24
31 30 30 29 28 28 27 26 25 25 25 24 23 23 23 23 22 23 23 23 23 24 24 26 27 28 30 31 32 34 34 35 34 34 33 31 29 29 28 27 26 26 25 24
35 34 34 32 30 29 28 27 27 27 26 26 25 24 24 24 24 24 25 25 25 26 27 28 29 31 32 33 34 35 36 36 36 34 33 31 30 29 29 29 28 27 27 26
40 39 38 36 34 32 31 30 30 29 28 27 27 26 26 26 26 26 27 27 27 28 29 30 31 33 34 35 36 37 37 37 36 35 34 32 31 30 29 29 30 30 30 29
44 44 42 40 38 36 35 33 32 31 31 30 29 29 28 28 29 29 29 30 30 31 32 33 34 35 36 36 37 38 38 38 37 36 35 34 33 32 31 30 30 30 31 32
47 47 47 45 43 41 39 37 36 35 34 34 33 32 32 32 32 32 32 33 33 33 34 35 36 37 38 39 39 40 40 40 39 38 37 36 35 34 33 33 32 32 32 32
52 50 50 49 47 45 43 42 41 40 39 38 36 36 36 36 36 36 36 36 36 37 37 38 39 39 40 41 41 42 42 41 40 39 38 37 36 36 35 35 35 34 34 34
54 53 51 51 49 48 47 46 45 44 42 41 40 40 40 40 40 40 40 40 40 40 40 41 41 42 43 43 43 44 43 43 42 41 40 39 38 37 37 37 36 36 36 36
54 54 53 52 51 50 49 48 48 47 46 45 44 43 43 44 44 43 43 43 43 43 43 44 44 45 45 46 46 46 45 44 43 42 41 40 39 39 38 38 38 38 38 39
52 53 54 54 53 52 51 51 50 50 49 48 47 47 47 47 47 47 47 47 46 46 47 47 47 48 48 48 48 47 46 45 43 42 41 40 39 39 39 39 39 40 40 41
50 51 51 53 53 53 53 52 52 51 51 51 51 51 51 51 50 50 50 50 49 50 50 50 50 50 50 50 49 47 46 44 43 41 40 39 39 39 39 40 41 42 42 43
46 47 49 50 51 52 53 53 54 53 53 53 53 53 53 52 52 52 52 52 52 52 52 52 52 52 51 50 48 46 45 43 41 40 39 39 39 40 41 42 43 44 45 46
44 44 46 47 48 50 51 53 54 54 54 54 55 55 55 54 54 53 53 53 53 53 53 53 52 51 50 48 46 44 42 41 40 39 39 40 41 42 43 44 45 46 47 48
44 44 43 45 46 47 49 51 52 53 54 54 55 54 54 54 54 54 54 54 53 53 53 52 51 49 47 45 43 42 41 40 40 40 41 42 43 44 45 46 47 48 50 51
40 42 43 43 45 47 47 48 49 50 51 52 52 52 53 53 53 53 53 52 52 51 51 49 48 45 44 42 41 40 40 40 40 41 42 43 44 45 46 48 49 50 52 54
38 39 40 41 42 44 45 47 47 48 48 49 49 50 50 50 50 50 50 49 49 48 47 45 43 42 41 40 40 40 40 41 42 43 44 44 45 46 48 49 51 52 55 57
37 38 39 39 40 41 42 44 45 45 45 46 46 46 46 46 46 46 45 45 45 44 43 42 41 40 40 40 40 41 41 42 42 43 44 45 46 47 49 50 53 55 57 60